Погода в Красном Яре

Россия / Калининградская область     54°41′06″N   21°21′28″E
темп.,
°C
ветер,
м/с
пор.,
м/с
влажн.,
%
обл.,
%
осадки,
мм/ч
давл.,
гПа
погр.,
м
17 сентября, пт
пт1723:00+14всв0098100 0.1 101023
02:00+13ссв0199100 0.1 101026
05:00+13св1299100 0.0 100995
08:00+13св2398100 0.0 1009163
11:00+14всв2395100 0.0 1010342
14:00+13всв3694100 0.0 1010394
17:00+11всв4893100 0.0 1011441
20:00+10всв51092100 0.0 1011566
18 сентября, сб
сб1823:00+9всв51089100 0.0 1013557
02:00+9всв51192100 0.4 1013589
05:00+7св41191100 1.2 1013504
08:00+7св41186100 1.3 1014548
11:00+11св5861100 0.0 1015847
14:00+14св585051 0.0 10141299
17:00+12св4957100 0.0 10151103
20:00+11ссв5105197 0.0 1015980
19 сентября, вс
вс1923:00+9ссв5116073 0.0 1015621
02:00+8ссв51063100 0.0 1015601
05:00+6ссв412729 0.0 1015514
08:00+6ссв51173100 0.0 1016526
11:00+8св5968100 0.0 1016726
14:00+10св4765100 0.0 1016975
17:00+8св4870100 0.0 1017814
20:00+8св4975100 0.0 1018735
20 сентября, пн
пн2023:00+7св4979100 0.0 1019701
02:00+8ссв3776100 0.0 1019613
05:00+5ссв38835 0.0 1019223
08:00+5ссв38785 0.0 1020286
11:00+10св465859 0.0 10201098
14:00+10св4660100 0.0 10201293
17:00+10в1462100 0.0 1020680
20:00+9зюз1167100 0.0 102123
21 сентября, вт
вт2123:00+6ссв22785 0.0 102122
02:00+4св22854 0.0 102122
05:00+3ссв228918 0.0 102124
08:00+6ссв25765 0.0 1022191
11:00+11с45555 0.0 10221157
14:00+12ссз56545 0.0 10221274
17:00+11ссз47595 0.0 10221197
20:00+8ссз256996 0.0 1022148